Location: Berg
(48.5667°N, 13.9833°E)
Time: 02:19:59
(UTC+00:00)

SL-4 R/B - Pass Details

Date: 09 April 2020
Orbit: 428 x 666 km, 51.6° (Epoch: 06 June)

Event Time Altitude Azimuth Distance (km) Brightness Sun altitude
Rises 20:42:57 0° 284° (WNW) 2,396 6.1 -25.4°
Reaches altitude 10° 20:45:04 10° 289° (WNW) 1,537 5.0 -25.6°
Enters shadow 20:47:07 32° 307° (NW) 784 3.3 -25.8°
